Centralia, IL

10:49 AM CDT on August 16, 2017 (GMT -0500)
Centralia Municipal

Weather History for KENL - September, 2012

Change the Weather History Date:

Thursday, September 27, 2012

  Actual Average (KSLO) Record (KSLO)
Temperature  
Mean Temperature 67 °F -  
Max Temperature 70 °F 75 °F 88 °F (1971)
Min Temperature 64 °F 50 °F 37 °F (1989)
Cooling Degree Days 2    
Growing Degree Days 17 (Base 50)    
Moisture  
Dew Point 64 °F    
Average Humidity 92    
Maximum Humidity 95    
Minimum Humidity 81    
Precipitation  
Precipitation 0.01 in - - ()
Sea Level Pressure  
Sea Level Pressure 30.12 in    
Wind  
Wind Speed 2 mph (WNW)    
Max Wind Speed 7 mph    
Max Gust Speed -    
Visibility 4 miles    
Events Fog , Rain    
Averages and records for this station are not official NWS values.
T = Trace of Precipitation, MM = Missing Value Source: NWS Daily Summary

Daily Weather History Graph

Daily Weather History Graph

Search for Another Location

Airport or City:

Trip Planner

Search our weather history database for the weather conditions in past years. The results will help you decide how hot, cold, wet, or windy it might be!

Date:

Astronomy

Sep. 27, 2012 Rise Set
Actual Time 6:49 AM CDT 6:44 PM CDT
Civil Twilight 6:22 AM CDT 7:11 PM CDT
Nautical Twilight 5:51 AM CDT 7:41 PM CDT
Astronomical Twilight 5:20 AM CDT 8:12 PM CDT
Moon 5:15 PM CDT (9/27) 4:19 AM CDT (9/27)
Length of Visible Light 12h 48m
Length of Day
11h 55m
Waxing Gibbous, 94% of the Moon is Illuminated
Sep 27
Waxing Gibbous
Sep 29
Full
Oct 8
Last Quarter
Oct 15
New
Oct 21
First Quarter

Hourly Weather History & Observations

Time (CDT) Temp. Dew Point Humidity Pressure Visibility Wind Dir Wind Speed Gust Speed Precip Events Conditions
12:15 AM 67.1 °F 65.3 °F 94% 30.07 in 1.0 mi WSW 5.8 mph - N/A   Overcast
12:35 AM 67.1 °F 65.3 °F 94% 30.07 in 0.8 mi WSW 5.8 mph - 0.01 in   Overcast
12:55 AM 67.1 °F 65.3 °F 94% 30.08 in 1.5 mi WSW 6.9 mph - 0.01 in   Overcast
1:15 AM 67.1 °F 65.3 °F 94% 30.08 in 2.0 mi WSW 4.6 mph - N/A   Overcast
1:35 AM 66.7 °F 65.1 °F 95% 30.08 in 2.0 mi SW 3.5 mph - N/A   Overcast
1:55 AM 66.6 °F 64.9 °F 95% 30.08 in 2.0 mi Calm Calm - N/A   Overcast
2:15 AM 66.6 °F 64.9 °F 95% 30.08 in 1.8 mi Calm Calm - N/A   Overcast
2:35 AM 66.4 °F 64.8 °F 95% 30.08 in 1.0 mi Calm Calm - N/A   Overcast
2:55 AM 66.2 °F 64.6 °F 94% 30.08 in 0.2 mi Calm Calm - N/A Fog Fog
3:15 AM 66.2 °F 64.6 °F 94% 30.09 in 0.2 mi WSW 4.6 mph - N/A Fog Fog
3:35 AM 66.2 °F 64.6 °F 94% 30.09 in 0.2 mi WSW 3.5 mph - N/A Fog Fog
3:55 AM 66.0 °F 64.4 °F 94% 30.09 in 0.2 mi West 5.8 mph - N/A Fog Fog
4:15 AM 65.8 °F 64.4 °F 95% 30.10 in 0.2 mi WSW 3.5 mph - N/A Fog Fog
4:35 AM 65.8 °F 64.4 °F 95% 30.10 in 0.2 mi Calm Calm - N/A Fog Fog
4:55 AM 65.7 °F 64.0 °F 94% 30.11 in 0.2 mi Calm Calm - N/A Fog Fog
5:15 AM 65.7 °F 64.0 °F 94% 30.11 in 0.2 mi Calm Calm - N/A Fog Fog
5:35 AM 65.5 °F 63.9 °F 94% 30.12 in 0.2 mi Calm Calm - N/A Fog Fog
5:55 AM 65.5 °F 63.9 °F 94% 30.12 in 0.2 mi SSW 3.5 mph - N/A Fog Fog
6:15 AM 65.5 °F 63.9 °F 94% 30.13 in 0.2 mi SW 3.5 mph - N/A Fog Fog
6:35 AM 65.7 °F 64.0 °F 94% 30.13 in 0.2 mi WSW 3.5 mph - N/A Fog Fog
6:55 AM 65.5 °F 63.9 °F 94% 30.13 in 0.2 mi Calm Calm - N/A Fog Fog
7:15 AM 65.5 °F 63.9 °F 94% 30.13 in 0.2 mi Calm Calm - N/A Fog Fog
7:35 AM 65.5 °F 63.9 °F 94% 30.13 in 0.2 mi Calm Calm - N/A Fog Fog
7:55 AM 65.8 °F 64.4 °F 95% 30.13 in 0.2 mi Calm Calm - N/A Fog Fog
8:15 AM 65.8 °F 64.2 °F 94% 30.14 in 0.2 mi Calm Calm - N/A Fog Fog
8:35 AM 66.0 °F 64.4 °F 94% 30.14 in 0.2 mi Calm Calm - N/A Fog Fog
8:55 AM 66.2 °F 64.6 °F 94% 30.14 in 0.2 mi North 3.5 mph - N/A Fog Fog
9:15 AM 66.4 °F 64.8 °F 95% 30.15 in 0.2 mi NNW 3.5 mph - N/A Fog Fog
9:35 AM 66.6 °F 65.1 °F 95% 30.15 in 0.5 mi NW 3.5 mph - N/A Fog Fog
9:55 AM 66.7 °F 65.3 °F 95% 30.15 in 1.5 mi North 4.6 mph - N/A   Overcast
10:15 AM 66.6 °F 64.9 °F 95% 30.15 in 1.0 mi NNW 6.9 mph - N/A   Overcast
10:35 AM 65.5 °F 63.9 °F 94% 30.15 in 0.5 mi North 5.8 mph - N/A Fog Fog
10:55 AM 65.3 °F 63.7 °F 94% 30.16 in 0.5 mi NNE 4.6 mph - N/A Fog Fog
11:15 AM 65.5 °F 63.9 °F 94% 30.16 in 1.0 mi NNE 3.5 mph - N/A   Overcast
11:35 AM 65.7 °F 64.0 °F 94% 30.16 in 2.0 mi Calm Calm - N/A   Overcast
11:55 AM 66.0 °F 64.4 °F 94% 30.16 in 2.0 mi NE 4.6 mph - N/A   Overcast
12:15 PM 66.0 °F 64.4 °F 94% 30.15 in 2.5 mi Calm Calm - N/A   Overcast
12:35 PM 66.7 °F 64.9 °F 94% 30.15 in 3.0 mi Calm Calm - N/A   Overcast
12:55 PM 67.1 °F 64.6 °F 92% 30.15 in 4.0 mi North 3.5 mph - N/A   Overcast
1:15 PM 66.6 °F 64.0 °F 92% 30.14 in 4.0 mi NE 3.5 mph - N/A   Overcast
1:35 PM 66.9 °F 64.2 °F 91% 30.15 in 5.0 mi Calm Calm - N/A   Overcast
1:55 PM 67.1 °F 63.7 °F 89% 30.15 in 5.0 mi Calm Calm - N/A   Overcast
2:15 PM 68.0 °F 63.9 °F 87% 30.14 in 5.0 mi NNW 3.5 mph - N/A   Overcast
2:35 PM 68.9 °F 64.0 °F 84% 30.13 in 7.0 mi Calm Calm - N/A   Mostly Cloudy
2:55 PM 69.3 °F 64.2 °F 84% 30.12 in 7.0 mi Calm Calm - N/A   Scattered Clouds
3:15 PM 69.8 °F 64.0 °F 82% 30.11 in 10.0 mi Calm Calm - N/A   Clear
3:35 PM 69.8 °F 64.2 °F 82% 30.10 in 7.0 mi East 3.5 mph - N/A   Scattered Clouds
3:55 PM 69.8 °F 64.4 °F 83% 30.11 in 7.0 mi Calm Calm - N/A   Scattered Clouds
4:15 PM 70.3 °F 64.4 °F 81% 30.10 in 10.0 mi Calm Calm - N/A   Clear
4:35 PM 70.0 °F 64.4 °F 82% 30.11 in 7.0 mi Calm Calm - N/A Rain Light Rain
4:55 PM 70.3 °F 64.6 °F 82% 30.11 in 10.0 mi Calm Calm - N/A Rain Light Rain
5:15 PM 69.8 °F 64.4 °F 83% 30.11 in 10.0 mi Calm Calm - N/A   Clear
5:35 PM 70.3 °F 64.9 °F 83% 30.11 in 10.0 mi Calm Calm - N/A   Scattered Clouds
5:55 PM 70.3 °F 64.6 °F 82% 30.11 in 10.0 mi Calm Calm - N/A   Mostly Cloudy
6:15 PM 70.2 °F 64.8 °F 83% 30.11 in 10.0 mi Calm Calm - N/A   Scattered Clouds
6:35 PM 69.3 °F 64.6 °F 85% 30.11 in 10.0 mi Calm Calm - N/A   Scattered Clouds
6:55 PM 68.2 °F 63.9 °F 86% 30.11 in 10.0 mi Calm Calm - N/A   Scattered Clouds
7:15 PM 67.3 °F 63.7 °F 88% 30.11 in 10.0 mi Calm Calm - N/A   Clear
7:35 PM 66.2 °F 63.5 °F 91% 30.12 in 7.0 mi Calm Calm - N/A   Clear
7:55 PM 65.5 °F 62.8 °F 91% 30.12 in 7.0 mi Calm Calm - N/A   Clear
8:15 PM 64.4 °F 62.1 °F 92% 30.13 in 5.0 mi Calm Calm - N/A   Clear
8:35 PM 64.4 °F 62.2 °F 93% 30.12 in 5.0 mi Calm Calm - N/A   Clear
8:55 PM 64.4 °F 62.6 °F 94% 30.12 in 5.0 mi Calm Calm - N/A   Clear
9:15 PM 64.6 °F 62.8 °F 94% 30.13 in 4.0 mi Calm Calm - N/A   Clear
9:35 PM 64.6 °F 62.8 °F 94% 30.13 in 4.0 mi Calm Calm - N/A   Clear
9:55 PM 64.6 °F 62.8 °F 94% 30.12 in 5.0 mi Calm Calm - N/A   Scattered Clouds
10:15 PM 64.8 °F 63.0 °F 94% 30.12 in 5.0 mi Calm Calm - N/A   Clear
10:35 PM 64.4 °F 62.6 °F 94% 30.13 in 3.0 mi Calm Calm - N/A   Scattered Clouds
10:55 PM 64.6 °F 62.8 °F 94% 30.12 in 4.0 mi Calm Calm - N/A   Mostly Cloudy
11:15 PM 64.4 °F 62.6 °F 94% 30.12 in 3.0 mi Calm Calm - N/A   Overcast
11:35 PM 64.4 °F 62.6 °F 94% 30.13 in 5.0 mi Calm Calm - N/A   Overcast
11:55 PM 64.4 °F 62.6 °F 94% 30.12 in 5.0 mi Calm Calm - N/A   Overcast